TimeEDT,TemperatureF,Dew PointF,Humidity,Sea Level PressureIn,VisibilityMPH,Wind Direction,Wind SpeedMPH,Gust SpeedMPH,PrecipitationIn,Events,Conditions,WindDirDegrees,DateUTC
12:53 AM,45.0,19.9,37,29.95,10.0,SE,11.5,-,N/A,,Overcast,140,2013-04-07 04:53:00
1:53 AM,48.9,16.0,27,29.90,10.0,South,10.4,-,N/A,,Clear,170,2013-04-07 05:53:00
2:53 AM,50.0,18.0,28,29.86,10.0,South,15.0,-,N/A,,Clear,180,2013-04-07 06:53:00
3:53 AM,48.9,19.9,32,29.83,10.0,South,11.5,19.6,N/A,,Clear,180,2013-04-07 07:53:00
4:53 AM,51.1,21.9,32,29.81,10.0,South,19.6,25.3,N/A,,Scattered Clouds,190,2013-04-07 08:53:00
5:53 AM,52.0,25.0,35,29.80,10.0,SSW,18.4,25.3,N/A,,Clear,200,2013-04-07 09:53:00
6:53 AM,53.1,26.1,35,29.78,10.0,South,16.1,-,N/A,,Scattered Clouds,190,2013-04-07 10:53:00
7:07 AM,53.6,26.6,35,29.74,10.0,South,19.6,27.6,N/A,,Mostly Cloudy,190,2013-04-07 11:07:00
7:53 AM,54.0,27.0,35,29.75,10.0,South,18.4,25.3,N/A,,Mostly Cloudy,190,2013-04-07 11:53:00
8:53 AM,57.9,30.0,35,29.73,10.0,SSW,24.2,34.5,N/A,,Mostly Cloudy,200,2013-04-07 12:53:00
9:15 AM,57.2,30.2,36,29.71,10.0,SSW,23.0,35.7,0.00,Rain,Light Rain,210,2013-04-07 13:15:00
9:53 AM,55.9,34.0,44,29.71,10.0,SSW,20.7,33.4,0.00,Rain,Light Rain,200,2013-04-07 13:53:00
10:22 AM,57.2,33.8,41,29.69,10.0,SSW,21.9,28.8,0.00,,Overcast,200,2013-04-07 14:22:00
10:53 AM,57.9,33.1,39,29.72,10.0,SSW,19.6,29.9,0.00,,Overcast,210,2013-04-07 14:53:00
11:53 AM,62.1,37.0,39,29.72,10.0,SW,25.3,39.1,N/A,,Mostly Cloudy,230,2013-04-07 15:53:00
12:53 PM,64.0,41.0,43,29.72,10.0,WSW,32.2,52.9,N/A,,Scattered Clouds,240,2013-04-07 16:53:00
1:53 PM,64.0,42.1,45,29.72,10.0,WSW,35.7,58.7,N/A,,Scattered Clouds,240,2013-04-07 17:53:00
2:53 PM,64.9,41.0,42,29.75,10.0,WSW,28.8,43.7,N/A,,Scattered Clouds,250,2013-04-07 18:53:00
3:53 PM,62.1,42.1,48,29.78,10.0,West,23.0,39.1,N/A,,Scattered Clouds,280,2013-04-07 19:53:00
4:53 PM,55.9,37.9,51,29.83,10.0,WNW,24.2,35.7,N/A,,Partly Cloudy,300,2013-04-07 20:53:00
5:43 PM,53.6,35.6,51,29.86,10.0,WNW,25.3,36.8,N/A,,Scattered Clouds,300,2013-04-07 21:43:00
5:53 PM,53.6,35.6,51,29.88,10.0,WNW,23.0,29.9,N/A,,Scattered Clouds,300,2013-04-07 21:53:00
6:53 PM,48.2,35.6,62,29.93,10.0,WNW,18.4,24.2,N/A,,Scattered Clouds,300,2013-04-07 22:53:00
7:53 PM,46.0,33.1,61,29.96,10.0,WNW,13.8,-,N/A,,Scattered Clouds,300,2013-04-07 23:53:00
8:53 PM,44.1,33.1,65,30.00,10.0,NW,11.5,-,N/A,,Mostly Cloudy,310,2013-04-08 00:53:00
9:53 PM,43.0,32.0,65,30.03,10.0,NW,11.5,-,N/A,,Mostly Cloudy,310,2013-04-08 01:53:00
10:53 PM,43.0,30.9,62,30.04,10.0,NW,9.2,-,N/A,,Mostly Cloudy,320,2013-04-08 02:53:00
11:53 PM,42.1,30.9,65,30.06,10.0,NNW,8.1,-,N/A,,Overcast,330,2013-04-08 03:53:00